Regional Weather Roundup
Issued by NWS

Home | Current Version | Previous Version | Graphics & Text | Print | Product List | Glossary On
Versions: 1 2 3 4 5 6 7 8 9 10 11 12 13 14 15 16 17 18 19 20 21 22 23 24 25 26 27 28 29 30 31 32 33 34 35 36 37 38 39 40 41 42 43 44 45 46 47 48 49 50
000
ASUS43 KMPX 220901
RWRMN
WEATHER ROUNDUP FOR MINNESOTA
NATIONAL WEATHER SERVICE TWIN CITIES/CHANHASSEN MN
400 AM CDT TUE JUL 22 2014


NOTE: "FAIR" INDICATES FEW OR NO CLOUDS BELOW 12,000 FEET WITH NO
SIGNIFICANT WEATHER AND/OR OBSTRUCTIONS TO VISIBILITY. N/A MEANS
CURRENT SKY AND/OR WEATHER CONDITIONS ARE NOT AVAILABLE.

MNZ060>063-068>070-221000-
   Twin Cities Metro

CITY           SKY/WX    TMP DP  RH WIND       PRES   REMARKS
TWIN CITIES    MOCLDY    82  76  81 SW7       29.80S
ST PAUL          N/A     79  75  87 CALM      29.79F
CRYSTAL        MOCLDY    82  75  79 SW8       29.77F
BLAINE         MOCLDY    82  79  89 S7        29.78S HX  93
LAKEVILLE      MOCLDY    79  73  83 CALM      29.81S
EDEN PRAIRIE   PTCLDY    80  76  87 SW12      29.79S
SOUTH ST PAUL  MOCLDY    80  75  83 S6        29.79F
LAKE ELMO      CLOUDY    79  75  89 S6        29.81F
$$
MNZ001>005-007-008-013>017-022>024-027-028-221000-
   Northwest Minnesota

CITY           SKY/WX    TMP DP  RH WIND       PRES   REMARKS
BEMIDJI        LGT RAIN  64  63  94 N13G20    29.79R
HALLOCK        CLOUDY    64  61  88 NW12      29.89R
ROSEAU         CLOUDY    61  55  82 NW9       29.85R
THIEF RVR FALL CLOUDY    63  61  94 NW13      29.87R
FOSSTON        CLOUDY    63  61  94 NW12G17   29.87R
DETROIT LAKES  CLOUDY    64  63  94 NW15      29.90R
MOORHEAD       CLOUDY    68  68 100 NW10      29.91R
PARK RAPIDS    CLOUDY    65  64  97 NW17G24   29.81R
$$
MNZ006-009>011-018-025>026-221000-
   North Central Minnesota

CITY           SKY/WX    TMP DP  RH WIND       PRES   REMARKS
BAUDETTE       RAIN      66  64  93 NW12      29.80R FOG
FLAG ISLAND    CLOUDY    63  61  94 N17       29.81R
INTL FALLS     HVY RAIN  65  64  97 N10       29.68F FOG
WASKISH        LGT RAIN  66  64  94 W10       29.78R
LONGVILLE      DRIZZLE   66  64  94 W8        29.77R
GRAND RAPIDS   CLOUDY    66  63  88 S3        29.72S
ORR            CLOUDY    64  63  94 W3        29.66R
COOK           CLOUDY    64  64 100 S7        29.67F
$$
MNZ012-019>021-037-221000-
   Northeast Minnesota

CITY           SKY/WX    TMP DP  RH WIND       PRES   REMARKS
DULUTH         CLOUDY    68  64  87 SW9       29.72F
ELY            CLOUDY    64  63  94 S5        29.70R
HIBBING        CLOUDY    66  64  93 CALM      29.69F
DULUTH HARBOR  CLOUDY    64  63  94 CALM      29.69F THUNDER
TWO HARBORS    CLOUDY    63  57  82 SW3       29.66F THUNDER
SILVER BAY     TSTM      63  63 100 W7        29.69F
GRAND MARAIS     N/A     62  61  96 NE7       29.69F
G MARAIS ARPRT CLOUDY    66  61  82 N5        29.73F
$$
MNZ029>031-032-039>041-046>048-054>057-064-221000-
   West Central Minnesota

CITY           SKY/WX    TMP DP  RH WIND       PRES   REMARKS
FERGUS FALLS   MOCLDY    66  64  94 NW13      29.90R
WHEATON        CLEAR     64  63  94 NW9       29.92R
MORRIS         CLEAR     66  64  94 NW14      29.88R
ALEXANDRIA     CLEAR     67  66  97 W15       29.88R
ELBOW LAKE     FAIR      65  64  96 NW15      29.89R
WADENA         PTCLDY    64  63  94 W15G26    29.82R
GLENWOOD       CLEAR     66  64  94 W13       29.87R
APPLETON       CLEAR     68  64  88 NW10      29.87R
BENSON         CLEAR     64  63  94 N8        29.86R
MADISON        CLEAR     70  66  88 NW10      29.89R
WILLMAR        FAIR      70  63  78 NW8       29.86R
$$
MNZ033>034-036-042>043-049>051-058-059-221000-
   Central Minnesota

CITY           SKY/WX    TMP DP  RH WIND       PRES   REMARKS
ST CLOUD       PTCLDY    71  64  78 W7        29.80S
SAUK CENTRE    FAIR      66  64  93 W9        29.85R
PAYNESVILLE    HVY RAIN  64  62  94 SW6       29.84S
AITKIN         MOCLDY    70  64  83 SW8       29.76R
PINE RIVER     DRIZZLE   66  64  94 W6        29.82R
BRAINERD       MOCLDY    67  64  90 W16       29.78R
STAPLES        PTCLDY    64  63  94 W14       29.81R
LONG PRAIRIE   FAIR      64  63  94 W10G18    29.84R
LITTLE FALLS   CLEAR     66  63  88 W9        29.81R
LITCHFIELD     CLEAR     73  68  83 W9        29.84R
BUFFALO        MOCLDY    74  66  76 W6        29.82R
MAPLE LAKE     MOCLDY    74  68  81 W3        29.82S
$$
MNZ037-044-045-052-053-221000-
   East Central Minnesota

CITY           SKY/WX    TMP DP  RH WIND       PRES   REMARKS
PRINCETON      MOCLDY    72  68  88 SW6       29.80S
MORA           PTCLDY    68  66  94 SW6       29.79F
CAMBRIDGE      MOCLDY    75  64  69 CALM      29.78R
RUSH CITY      MOCLDY    71  68  89 W3        29.78S
MOOSE LAKE     CLOUDY    68  64  88 S9        29.69F
HINCKLEY       CLOUDY    72  70  94 SW12G17   29.76S
CLOQUET        CLOUDY    66  64  94 SW8       29.72F
$$
MNZ071>073-080-081-089-090-097-098-221000-
   Southwest Minnesota

CITY           SKY/WX    TMP DP  RH WIND       PRES   REMARKS
MONTEVIDEO     CLEAR     66  63  88 N7        29.88R
GRANITE FALLS  CLEAR     67  64  90 W6        29.88R
CANBY          PTCLDY    68  62  82 W14       29.94R
MARSHALL       PTCLDY    70  63  78 W7        29.88R
REDWOOD FALLS  CLEAR     72  66  81 NW8       29.84R
OLIVIA         CLEAR     70  64  83 NW7       29.84R
PIPESTONE      CLEAR     70  64  83 N8        29.93R
WINDOM         CLEAR     77  73  88 NW8       29.87R
WORTHINGTON    CLEAR     77  73  88 SW6       29.90R
TRACY          PTCLDY    71  67  87 CALM      29.89R
SLAYTON        CLEAR     71  65  81 CALM      29.91R
$$
MNZ065>067-074>077-082>085-091>093-221000-
   South Central Minnesota

CITY           SKY/WX    TMP DP  RH WIND       PRES   REMARKS
MANKATO        CLEAR     79  73  83 SW8       29.83S
NEW ULM        CLEAR     77  77 100 W6        29.83S FOG
ST JAMES       PTCLDY    77  75  94 SW3       29.85S FOG
FAIRMONT       CLEAR     77  72  83 SW5       29.85S
GLENCOE        CLOUDY    80  75  84 SW5       29.81S
FARIBAULT      PTCLDY    82  73  74 S7        29.83S
OWATONNA       PTCLDY    79  73  83 SW3       29.84S
WASECA         CLEAR     77  70  78 SW9       29.85S
ALBERT LEA     CLEAR     79  75  89 S7        29.86F
$$
MNZ078>079-086>088-094>096-221000-
   Southeast Minnesota

CITY           SKY/WX    TMP DP  RH WIND       PRES   REMARKS
ROCHESTER      MOCLDY    78  73  84 S16       29.88S
RED WING       MOCLDY    79  73  83 S5        29.81S
STANTON        MOCLDY    79  74  84 SW9       29.81R
DODGE CENTER   MOCLDY    77  73  88 S15       29.86S
WINONA         MOCLDY    77  70  78 S5        29.86F
AUSTIN         PTCLDY    77  73  88 S8        29.87F FOG
PRESTON        MOCLDY    74  74  99 S9        29.91R
$$
ABBREVIATIONS USED IN REMARKS
   TC - TEMPERATURES IN CELSIUS
  WCI - WIND CHILL INDEX
   HX - HEAT INDEX
  VSB - VISIBILITY
$$


USA.gov is the U.S. government's official web portal to all federal, state and local government web resources and services.